Location: Dimsdale
(55.1333°N, 118.9833°W)
Time: 10:04:10
(UTC+00:00)

SO-50 - Pass Details

Date: 10 December 2023
Orbit: 608 x 660 km, 64.6° (Epoch: 02 March)

Event Time Altitude Azimuth Distance (km) Brightness Sun altitude
Exits shadow 13:16:07 28° 356° (N) 1,204 ? -23.2°
Drops below altitude 10° 13:19:41 10° 46° (NE) 2,029 ? -22.7°
Sets 13:22:13 0° 58° (ENE) 2,928 ? -22.3°
